Regional Weather Roundup
Issued by NWS

Home | Current Version | Previous Version | Graphics & Text | Print | Product List | Glossary On
Versions: 1 2 3 4 5 6 7 8 9 10 11 12 13 14 15 16 17 18 19 20 21 22 23 24 25 26 27 28 29 30 31 32 33 34 35 36 37 38 39 40 41 42 43 44 45 46 47 48 49 50
000
ASUS45 KBOU 221607
RWRCO

WEATHER ROUNDUP FOR COLORADO
NATIONAL WEATHER SERVICE DENVER/BOULDER CO
900 AM MST SAT NOV 22 2014

NOTE: "FAIR" INDICATES FEW OR NO CLOUDS BELOW 12000 FEET WITH NO
SIGNIFICANT WEATHER AND/OR OBSTRUCTIONS TO VISIBILITY.

COZ001>005-013-030-031-221700-
...NORTHWEST COLORADO...

CITY           SKY/WX    TMP DP  RH WIND       PRES   REMARKS
CRAIG          PTSUNNY   30  24  78 CALM      29.95F
HAYDEN         MOSUNNY   28  16  59 E15       29.95F WCI  17
MEEKER         MOSUNNY   42  20  41 S15G25    29.95F
MOUNT WERNER   NOT AVBL
STEAMBOAT SPGS SUNNY     21  16  83 S3        29.98F
WALDEN         PTSUNNY   34  19  55 S17G24    29.92F WCI  23
$$

COZ006>008-011-221700-
...WEST CENTRAL VALLEYS...

CITY           SKY/WX    TMP DP  RH WIND       PRES   REMARKS
GRAND JUNCTION MOSUNNY   33  19  56 SE9       30.03F WCI  25
MONTROSE       SUNNY     34  21  59 S5        30.10F WCI  30
EAGLE          MOSUNNY   21  18  86 CALM      30.08F
RIFLE          MOSUNNY   26  20  77 CALM      30.07F
DELTA          SUNNY     35  19  53 E5        30.10F WCI  31
NUCLA          SUNNY     32  23  69 CALM      30.13F
$$

COZ017>023-064>068-221700-
...SOUTHWEST COLORADO...

CITY           SKY/WX    TMP DP  RH WIND       PRES   REMARKS
DURANGO        SUNNY     31  21  66 E3        30.13R
CORTEZ         SUNNY     33  23  66 E3        30.12F
PAGOSA SPRINGS SUNNY     33  19  58 CALM      30.13R
TELLURIDE      SUNNY     28  16  60 E6        30.14F WCI  21
WOLF CREEK PAS SUNNY     21  14  73 SW18G26   30.13S WCI   6
$$

COZ009-010-012-014-032>034-037-058>063-221700-
...CENTRAL COLORADO...

CITY           SKY/WX    TMP DP  RH WIND       PRES   REMARKS
ASPEN          SUNNY     26  14  60 S7        30.04F WCI  18
BUENA VISTA    SUNNY     38  15  39 W16G35    29.98F
COPPER MTN     SUNNY     25   9  50 W14       30.05F WCI  13
BERTHOUD PASS  FAIR      12   7  79 NW37G48   29.95R WCI -11
COTTONWOOD PAS SUNNY     34  12  40 NW15G25   30.00S WCI  24
GUNNISON       SUNNY     12   9  85 CALM      30.20F
KREMMLING      SUNNY     21  16  79 CALM      30.04F
LEADVILLE      SUNNY     29  10  45 N18G25    30.02F WCI  16
SALIDA         SUNNY     42  16  34 SW22G32   30.05F
SUNLIGHT       MOSUNNY   27  19  74 CALM      30.07F
WILKERSON PASS MOSUNNY   23   7  50 SW17G29   29.96F WCI   9
$$

COZ069>075-221700-
...SAN LUIS VALLEY/SANGRE DE CRISTO MOUNTAINS...

CITY           SKY/WX    TMP DP  RH WIND       PRES   REMARKS
ALAMOSA        SUNNY     26  17  68 SW3       30.10R
LA VETA PASS   SUNNY     28  16  59 S18G36    29.99F WCI  16
SAGUACHE       SUNNY     32  16  51 NW10      30.09F WCI  24
$$

COZ035-036-038>040-221700-
...NORTHERN COLORADO FRONT RANGE...

CITY           SKY/WX    TMP DP  RH WIND       PRES   REMARKS
DENVER INTL AP MOSUNNY   50  15  24 S15       29.74F
DMNS CITY PARK   N/A     55   9  16 SW12G17   29.73F
AURORA         MOSUNNY   48  13  24 S14       29.76F
FRONT RANGE AP MOSUNNY   52  18  25 SW16G23   29.76F
ERIE MUNI ARPT MOSUNNY   52  21  30 N6        29.73S
BOULDER MUN AP MOSUNNY   46  18  31 CALM      29.73R
CENTENNIAL     MOSUNNY   50  11  20 SW20G25   29.76F
BROOMFIELD     PTSUNNY   57  10  15 W25G39    29.75S
FORT COLLINS   PTSUNNY   30  23  74 N7        29.75F WCI  23
LONGMONT       PTSUNNY   57  16  20 W21G33    29.74S
$$

COZ041-046-047-076>085-087-088-221700-
...PIKES PEAK/PALMER DIVIDE AND SOUTHERN FOOTHILLS...

CITY           SKY/WX    TMP DP  RH WIND       PRES   REMARKS
COLO. SPRINGS  MOSUNNY   44  18  35 E7        29.83F
A. F. ACADEMY  SUNNY     50   8  18 S6        29.82S
ELLICOTT       NOT AVBL
FALCON         NOT AVBL
FORT CARSON    SUNNY     39  19  43 N8        29.81F
LIMON          SUNNY     49  16  26 VRB3      29.80F
MONUMENT HILL  SUNNY     46   7  19 SW14G24   29.82S
TRINIDAD       SUNNY     41  19  41 W9        29.90F
$$

COZ042>045-048>051-090-091-221700-
...NORTHEAST COLORADO...

CITY           SKY/WX    TMP DP  RH WIND       PRES   REMARKS
GREELEY ARPT   PTSUNNY   30  21  69 N8        29.77R WCI  23
AKRON          SUNNY     53  15  22 SW20      29.74F
BURLINGTON     SUNNY     52  22  30 SW16      29.79F
WRAY           SUNNY     53  21  28 SW9G16    29.76F
STERLING       SUNNY     34  28  80 W3        29.73F
HOLYOKE        SUNNY     52  25  35 SW13G22   29.73F
FORT MORGAN    SUNNY     38  23  54 SW5       29.74F
$$

COZ086-089-092>099-221700-
...SOUTHEAST COLORADO...

CITY           SKY/WX    TMP DP  RH WIND       PRES   REMARKS
PUEBLO         SUNNY     39  27  62 W3        29.84F
LA JUNTA       SUNNY     42  28  57 SW9       29.85F
LAMAR          SUNNY     39  31  72 NW7       29.84F
SPRINGFIELD      N/A     54  26  34 W5        29.86F
$$


USA.gov is the U.S. government's official web portal to all federal, state and local government web resources and services.